SCP
0 0 0 0 0 0 0 0 0 0 0 0 1 1 1 1 1 1 1 1 1 1 1 1 1 1 1 1 1 1 1 1 1 1 1 1 1 1 1 1 1 1 1
0 0 0 0 0 0 0 0 0 0 0 0 0 1 1 1 1 1 1 1 1 1 1 1 1 1 1 1 1 1 1 1 1 1 1 1 1 1 1 1 1 1 1
0 0 0 0 0 0 0 0 0 0 0 0 0 0 1 1 1 1 1 1 1 1 1 1 1 1 1 1 1 1 1 1 1 2 2 1 1 1 1 1 1 1 1
0 0 0 0 0 0 0 0 0 0 0 0 0 0 0 1 1 1 1 1 1 1 1 1 1 1 1 1 1 1 1 1 1 2 2 2 1 1 1 1 1 1 1
0 0 0 0 0 0 0 0 0 0 0 0 0 0 1 1 1 1 1 1 1 1 1 1 1 2 1 1 1 1 1 1 1 1 2 2 2 1 1 1 1 1 1
0 0 0 0 1 0 0 0 1 1 0 0 0 1 1 1 1 1 1 1 1 1 1 2 2 2 2 2 1 1 1 1 1 1 1 2 2 2 1 1 1 1 1
0 0 0 0 0 1 1 1 1 1 1 0 0 1 1 1 1 1 1 1 2 2 2 2 2 2 2 2 1 1 1 1 1 1 1 1 1 1 1 1 1 1 1
0 0 0 0 0 0 1 1 1 1 1 0 0 0 1 1 2 2 3 2 2 2 2 2 3 2 2 1 1 1 1 1 1 1 1 1 1 1 1 1 1 1 1
0 0 0 0 0 0 0 1 1 1 1 0 0 0 1 1 2 3 3 3 2 2 3 3 3 2 1 1 1 1 1 1 1 1 1 2 2 2 1 1 1 1 1
0 0 0 0 0 0 0 0 0 0 0 0 0 0 1 1 2 3 3 3 3 3 3 3 2 2 1 1 1 1 1 1 1 1 1 2 2 2 1 1 1 1 1
0 0 0 0 0 0 0 0 0 0 0 0 0 0 0 0 1 1 2 2 3 3 2 2 2 1 1 1 1 1 1 1 1 1 2 2 2 2 2 1 1 1 1
0 0 0 0 0 0 0 0 0 0 0 0 0 0 0 0 0 1 1 2 2 2 2 1 1 1 1 1 1 1 0 0 0 1 1 2 2 2 1 1 1 1 1
0 0 0 0 0 0 0 0 0 0 0 0 0 0 0 0 0 0 1 1 1 1 1 1 1 0 0 0 0 0 0 0 0 1 1 2 2 2 1 1 1 1 1
0 0 0 0 0 0 0 0 0 0 0 0 0 0 0 0 0 0 0 0 0 0 0 0 0 0 0 0 0 0 0 0 0 1 1 1 1 2 1 1 1 1 1
0 0 0 0 0 0 0 0 0 0 0 0 0 0 0 0 0 0 0 0 0 0 0 0 0 0 0 0 0 0 0 0 0 1 1 1 1 1 1 1 1 1 1
0 0 0 0 0 0 1 1 1 0 0 0 0 0 0 0 1 1 1 0 0 0 0 0 0 0 0 0 0 0 0 0 0 1 1 1 1 1 1 1 1 1 1
0 0 0 0 0 0 0 1 1 0 0 0 0 0 0 1 1 1 1 0 0 0 0 0 0 0 0 0 0 0 0 0 0 1 1 1 1 1 1 1 1 1 1
0 0 0 0 0 0 0 0 0 0 0 0 0 0 0 1 1 1 1 0 0 0 0 0 0 0 0 0 0 0 0 0 0 0 0 0 1 1 1 1 1 1 1
0 0 0 0 0 0 0 0 0 0 0 0 0 0 0 0 0 1 1 0 0 0 0 0 0 0 0 0 0 0 0 1 0 0 0 0 0 0 0 0 0 1 1
1 0 0 0 0 0 0 0 0 0 0 0 0 0 0 0 0 0 0 0 0 0 0 0 0 0 0 0 1 1 1 1 1 0 0 0 0 0 0 0 0 1 1
1 1 1 0 0 0 0 0 0 0 0 0 0 0 0 0 0 0 0 0 0 0 0 0 0 1 1 1 1 1 1 0 0 0 0 0 0 0 0 0 1 1 1
1 1 1 1 0 0 0 0 0 0 0 0 0 0 0 0 0 0 0 0 0 0 0 0 1 1 1 1 1 1 1 0 0 0 0 0 0 0 0 0 1 1 1
1 1 1 1 1 0 0 0 0 0 0 0 0 0 0 0 0 0 0 0 0 0 0 0 1 1 1 1 1 1 1 1 0 0 0 0 0 0 0 0 1 1 1
1 1 1 1 1 0 0 0 0 0 0 0 0 0 0 0 0 0 0 0 0 0 0 0 1 1 1 1 1 1 1 1 1 0 0 0 0 0 0 0 0 0 0
1 1 1 1 1 1 0 0 0 0 0 0 0 0 0 0 1 0 0 0 0 0 0 0 0 1 1 1 1 1 1 1 1 0 0 0 0 0 0 0 0 0 1
1 1 1 1 1 1 0 0 0 0 0 0 0 0 0 1 1 1 0 0 0 0 0 0 0 0 0 0 0 1 1 1 1 0 0 0 0 0 0 0 0 1 1
Wind_Speed
3 5 6 6 6 6 6 7 7 7 8 8 8 8 8 8 8 8 8 8 8 8 8 8 8 8 8 7 7 7 7 8 7 7 7 7 7 7 7 6 5 6 7
4 5 5 6 6 6 7 7 7 7 8 8 8 8 8 8 8 8 8 9 9 9 9 9 8 8 8 7 7 7 8 7 7 7 6 7 7 7 7 6 5 6 8
4 4 5 6 7 7 7 7 8 8 8 8 8 8 8 8 8 8 9 9 9 9 9 9 9 8 8 8 7 8 8 7 6 6 5 5 7 8 7 7 7 8 8
4 5 6 7 7 7 7 7 8 8 9 9 9 8 8 8 8 8 9 9 9 10 10 9 9 9 9 9 8 8 8 6 5 3 4 5 6 8 7 7 7 7 8
5 5 7 6 7 8 8 8 8 9 9 9 9 9 8 8 8 8 9 9 10 10 10 10 9 9 9 9 9 8 8 6 4 2 4 5 5 8 8 7 7 8 8
5 6 8 7 8 8 9 9 10 10 10 10 10 10 9 8 7 8 9 10 10 10 10 10 9 9 9 9 9 8 7 5 3 4 4 4 5 8 7 7 7 8 8
6 6 8 8 8 8 9 9 10 10 10 10 10 10 10 9 9 9 10 10 10 10 10 10 9 10 10 10 9 9 7 5 4 5 5 5 7 8 8 8 8 8 8
6 6 7 8 8 8 9 9 9 10 10 11 11 11 11 11 12 11 11 11 11 10 10 10 10 10 10 10 9 8 7 4 5 5 5 6 8 8 9 9 8 8 8
6 6 5 6 7 8 9 9 9 10 11 11 11 11 12 12 12 12 11 11 11 11 11 11 10 10 10 10 9 9 8 6 4 4 6 6 9 9 9 9 9 8 8
5 5 5 5 6 6 7 9 9 9 10 10 11 11 10 10 11 11 11 11 11 12 12 11 11 11 11 10 9 8 6 3 5 5 4 7 10 9 9 9 9 9 9
5 4 4 5 5 6 6 7 7 7 8 6 8 7 5 6 8 9 13 12 12 12 12 11 11 10 9 10 9 7 4 4 5 5 5 9 10 9 9 9 9 9 9
4 4 4 4 5 5 5 5 4 5 5 5 6 6 5 6 7 7 11 12 12 11 10 10 8 6 3 5 6 3 4 6 5 5 7 10 9 9 9 9 9 8 9
4 4 4 4 4 4 4 4 3 3 4 5 6 6 5 5 4 5 4 5 6 6 6 6 4 4 5 5 4 5 6 5 4 5 7 10 9 9 9 9 9 9 8
4 4 4 3 4 4 4 4 3 3 3 4 4 5 4 4 4 5 4 4 4 4 4 4 3 5 6 6 6 6 6 4 4 4 7 10 9 9 9 9 9 9 8
4 3 4 3 3 4 4 3 3 4 4 4 4 4 5 4 4 4 4 4 4 4 4 4 5 6 6 6 5 6 6 6 5 5 5 10 9 8 9 9 8 8 8
3 3 4 3 3 3 3 3 4 4 4 4 4 4 6 4 4 4 5 5 4 4 4 4 5 5 5 5 6 6 5 5 5 5 5 7 9 8 8 8 8 8 8
3 3 4 3 3 3 3 4 3 3 3 3 3 4 5 5 5 5 4 4 4 4 4 4 5 4 4 4 5 5 4 5 5 5 5 4 5 9 10 9 8 8 8
3 3 4 3 3 3 3 3 3 3 3 3 3 3 4 5 5 4 4 4 4 3 3 3 3 3 4 4 4 3 3 4 4 5 4 4 4 4 7 10 9 8 7
3 3 4 4 3 4 3 3 3 3 3 3 3 3 3 4 4 4 3 3 3 3 3 3 3 3 4 3 3 3 3 3 3 3 4 5 5 4 4 7 8 8 7
4 4 4 4 3 4 3 3 3 3 2 2 2 2 3 3 4 4 3 3 3 2 2 2 3 3 3 2 3 3 3 3 3 3 4 4 4 4 4 4 3 5 7
4 4 5 5 4 4 3 2 2 2 2 2 2 2 2 2 3 3 2 3 2 2 2 2 2 3 2 1 1 2 3 3 3 3 3 3 3 3 3 3 2 2 3
5 4 4 4 4 4 2 2 2 2 2 2 2 2 2 2 2 2 2 2 2 2 2 2 1 1 1 1 1 0 2 3 3 2 2 2 2 2 2 3 3 3 2
5 5 4 4 4 4 4 2 2 2 2 2 2 1 1 1 2 2 2 2 2 1 1 1 1 0 0 0 1 2 1 1 2 2 2 2 2 1 2 2 2 2 2
6 5 5 5 4 4 4 3 4 3 2 2 1 2 2 1 1 1 1 1 1 1 1 0 0 0 1 0 1 1 2 2 1 1 2 1 1 1 1 1 1 1 2
6 5 5 5 5 4 4 3 3 3 2 2 2 2 2 2 1 1 0 0 0 0 0 0 0 1 1 1 1 1 1 1 2 1 1 1 1 1 1 1 1 1 2
6 5 5 5 5 4 4 5 4 4 3 2 2 2 2 1 1 1 0 0 0 0 0 0 0 0 1 1 1 1 1 1 1 1 1 1 1 1 1 1 1 1 1
Wind_Direction
30 30 31 17 33 41 48 49 51 57 61 64 69 67 66 62 65 67 69 76 84 91 97 97 97 97 95 93 93 93 98 102 106 109 113 117 115 113 115 117 128 117 111
32 43 49 29 36 46 54 54 56 60 61 61 66 69 69 69 69 70 73 76 82 88 93 94 91 89 88 92 91 90 96 98 103 112 122 124 117 114 112 104 91 91 106
50 55 69 42 41 49 54 57 59 61 63 62 67 68 67 68 70 72 75 77 81 86 89 91 92 89 86 87 89 89 93 95 101 115 135 121 113 110 108 105 100 99 104
60 57 56 47 45 50 56 58 58 60 64 65 65 65 64 66 72 73 74 76 80 82 85 88 88 85 82 83 83 84 86 88 92 128 116 98 103 102 100 100 102 100 101
68 63 66 48 54 60 61 59 60 62 64 65 63 63 63 63 66 73 75 78 80 82 82 84 84 82 80 80 81 81 82 83 89 101 89 94 96 98 101 96 98 99 99
76 68 71 53 58 63 62 61 62 64 65 65 63 61 60 60 67 81 81 80 80 82 83 83 84 83 79 78 78 78 76 78 99 86 91 97 98 98 100 97 98 96 97
80 73 75 61 61 63 63 63 64 64 64 63 61 58 53 54 73 89 87 83 82 81 81 81 81 81 78 77 76 74 71 62 70 84 91 93 92 97 102 99 96 95 96
79 77 81 82 69 63 62 65 65 65 63 62 61 57 55 56 72 83 84 82 82 80 78 80 80 79 77 76 75 71 59 33 81 85 87 90 95 100 101 99 97 95 91
82 78 74 80 88 85 72 65 66 64 64 62 61 59 58 62 69 75 77 79 79 78 77 77 77 77 76 74 72 68 59 42 66 83 89 88 98 101 98 98 95 93 90
86 78 74 70 67 74 85 77 68 65 64 65 62 60 63 72 76 76 76 73 75 75 75 75 74 75 74 71 67 63 57 56 70 80 79 88 96 100 100 99 97 93 89
88 80 74 68 66 67 71 81 83 84 76 81 80 72 63 66 69 74 66 69 72 72 72 75 75 75 81 81 69 60 54 55 68 69 72 84 93 97 100 101 96 93 90
106 94 81 75 73 75 73 79 71 71 71 63 61 63 57 59 59 64 74 70 71 75 79 76 82 89 78 82 86 81 64 61 62 70 76 82 89 95 97 98 96 94 93
105 94 88 83 81 80 82 73 68 67 63 63 59 63 63 66 70 64 70 82 76 74 72 81 83 67 67 64 58 64 61 57 59 65 76 79 83 89 93 92 90 88 90
106 95 87 84 88 84 82 79 75 73 68 67 62 62 61 58 56 59 60 61 62 61 62 63 63 70 71 71 67 68 70 65 62 67 71 72 75 82 90 91 88 88 85
114 104 93 91 85 82 80 79 81 75 72 74 66 60 65 64 64 61 63 60 59 62 66 65 62 65 69 65 64 67 70 70 70 71 76 71 67 72 83 89 88 88 87
127 113 109 106 99 94 95 92 79 77 80 73 71 67 68 69 68 68 66 59 55 56 60 69 70 67 70 72 69 68 67 69 68 71 75 82 71 63 71 77 83 85 85
131 123 117 117 115 108 97 88 87 85 85 80 75 68 69 68 70 70 69 66 60 58 59 62 70 71 75 79 77 66 63 59 61 63 66 67 76 71 63 64 75 80 82
143 130 124 130 129 116 108 106 100 93 83 81 79 65 66 70 74 75 74 72 68 63 61 59 59 68 72 71 73 70 70 72 66 63 68 70 64 68 73 65 61 66 74
150 141 137 138 137 128 121 117 106 102 93 84 81 70 61 66 70 76 70 68 71 66 62 67 62 60 69 66 71 74 67 69 72 72 74 72 73 73 75 78 67 57 58
158 150 139 139 143 135 134 125 113 102 100 86 75 70 61 63 68 75 79 76 77 82 78 84 85 73 66 65 67 69 71 80 77 68 64 66 64 66 65 67 82 82 66
164 160 149 152 149 146 142 143 136 128 121 100 78 69 70 67 73 76 75 77 74 81 86 90 84 93 82 74 98 99 98 87 80 77 67 65 69 63 65 56 45 53 90
171 168 160 153 151 153 148 150 147 133 130 109 103 89 76 76 78 75 76 86 91 91 98 90 88 78 86 24 352 278 146 139 110 96 88 77 72 75 61 53 47 39 35
181 177 171 163 158 162 157 150 147 136 144 139 134 107 75 70 79 73 67 78 84 92 93 108 134 110 72 87 4 336 334 57 117 115 93 100 80 72 69 49 36 32 41
184 184 181 171 168 164 159 166 170 176 163 156 149 140 155 125 98 79 75 67 95 77 91 143 139 263 305 323 62 344 348 7 304 144 134 101 78 68 68 88 49 31 33
177 182 185 175 171 167 170 173 197 192 174 162 165 163 164 139 130 116 80 30 90 119 86 41 351 288 282 315 328 332 356 309 292 293 156 146 138 105 73 56 63 41 36
172 177 183 183 176 177 185 190 204 196 189 179 184 185 185 162 180 171 178 255 279 268 234 192 200 285 310 315 299 295 292 288 295 301 268 218 141 117 136 106 89 73 48